�N����,����,�~����,�C��,���x,�C��,����,���ϕ���,�ő�u�ԕ���,�ő厞����,���˗�,�I�_���x,�n�����x,�ő啗���N��,DTYPE
"19/03/01","00:10",0.0,8.1,87.1,1010.2,328.7,2.0,2.8,333.4,0.00,6.1,9.2,"00:00:08",1
"19/03/01","00:20",0.0,7.8,88.3,1010.0,327.6,2.0,3.2,333.4,0.00,6.0,9.0,"00:13:52",1
"19/03/01","00:30",0.0,7.6,89.3,1010.2,328.3,2.5,3.9,323.7,0.00,6.0,8.8,"00:21:28",1
"19/03/01","00:40",0.0,7.9,90.4,1010.4,319.1,2.3,4.4,311.0,0.00,6.5,8.9,"00:33:52",1
"19/03/01","00:50",0.0,8.1,90.3,1010.2,325.0,2.3,3.9,347.5,0.00,6.6,9.0,"00:42:00",1
"19/03/01","01:00",0.0,8.3,90.0,1010.0,311.9,2.6,4.5,331.2,0.00,6.8,8.7,"00:50:08",1
"19/03/01","01:10",0.0,8.4,90.1,1010.7,328.3,2.7,4.1,319.2,0.00,6.9,8.7,"01:08:46",1
"19/03/01","01:20",0.0,8.5,89.8,1010.9,314.1,3.1,4.5,340.4,0.00,7.0,8.8,"01:18:08",1
"19/03/01","01:30",0.0,8.6,89.2,1010.7,311.8,3.4,4.8,311.7,0.00,7.0,8.9,"01:28:00",1
"19/03/01","01:40",0.0,8.4,88.8,1010.7,311.4,3.4,4.8,300.1,0.00,6.7,8.9,"01:36:56",1
"19/03/01","01:50",0.0,8.3,88.1,1010.7,327.6,3.5,5.5,339.0,0.00,6.5,8.8,"01:46:56",1
"19/03/01","02:00",0.0,8.1,88.8,1010.4,330.1,3.7,6.3,318.5,0.00,6.4,8.8,"01:51:28",1
"19/03/01","02:10",0.0,8.0,89.3,1010.4,329.9,3.7,6.0,338.1,0.00,6.4,8.8,"02:02:32",1
"19/03/01","02:20",0.0,7.9,89.2,1010.4,322.8,2.8,5.2,312.2,0.00,6.3,8.8,"02:14:00",1
"19/03/01","02:30",0.0,7.8,89.5,1010.4,324.6,2.5,3.7,336.9,0.00,6.2,8.8,"02:20:08",1
"19/03/01","02:40",0.0,7.7,89.5,1010.4,287.3,2.0,4.7,340.5,0.00,6.1,8.8,"02:32:00",1
"19/03/01","02:50",0.0,6.7,88.9,1010.4,310.2,1.7,3.4,336.2,0.00,5.0,8.8,"02:42:24",1
"19/03/01","03:00",0.0,6.4,91.5,1010.0,285.0,0.8,2.5,324.3,0.00,5.2,8.6,"02:51:20",1
"19/03/01","03:10",0.0,5.9,91.0,1009.7,313.2,1.7,3.2,335.6,0.00,4.6,8.6,"03:05:04",1
"19/03/01","03:20",0.0,5.9,93.0,1010.0,318.5,1.7,2.5,318.8,0.00,4.9,8.4,"03:10:32",1
"19/03/01","03:30",0.0,5.5,92.4,1010.0,314.2,1.3,2.7,315.6,0.00,4.4,8.3,"03:26:48",1
"19/03/01","03:40",0.0,5.3,92.9,1010.0,311.8,1.3,2.9,322.9,0.00,4.3,8.4,"03:30:02",1
"19/03/01","03:50",0.0,5.5,94.6,1009.7,318.6,2.0,3.4,325.6,0.00,4.7,8.3,"03:49:52",1
"19/03/01","04:00",0.0,6.2,93.3,1009.7,318.5,2.6,5.0,315.5,0.00,5.2,8.3,"03:54:48",1
"19/03/01","04:10",0.0,6.4,93.8,1009.5,292.0,2.0,3.4,304.5,0.00,5.5,8.2,"04:00:48",1
"19/03/01","04:20",0.0,5.9,92.9,1009.5,308.7,2.0,2.7,321.5,0.00,4.9,8.1,"04:12:56",1
"19/03/01","04:30",0.0,5.4,93.3,1009.5,292.4,1.7,3.2,329.4,0.00,4.4,8.2,"04:27:20",1
"19/03/01","04:40",0.0,5.2,94.3,1009.5,327.6,2.1,2.9,327.9,0.00,4.4,8.1,"04:36:16",1
"19/03/01","04:50",0.0,4.9,94.7,1009.7,320.0,1.7,2.4,318.8,0.00,4.2,8.1,"04:42:32",1
"19/03/01","05:00",0.0,4.6,94.7,1009.7,307.4,1.8,3.1,318.1,0.00,3.9,8.0,"04:51:36",1
"19/03/01","05:10",0.0,4.6,95.6,1010.0,320.8,2.1,2.9,309.0,0.00,4.0,8.1,"05:04:16",1
"19/03/01","05:20",0.0,4.4,95.3,1010.0,314.8,1.3,2.5,317.9,0.00,3.8,7.9,"05:12:08",1
"19/03/01","05:30",0.0,4.4,95.6,1010.0,323.7,1.7,2.8,327.1,0.00,3.8,7.9,"05:23:44",1
"19/03/01","05:40",0.0,4.7,96.2,1010.0,332.2,1.3,2.4,324.3,0.00,4.2,7.7,"05:31:44",1
"19/03/01","05:50",0.0,4.9,95.5,1010.4,354.1,1.5,3.9,337.5,0.00,4.3,7.7,"05:45:04",1
"19/03/01","06:00",0.0,4.4,95.4,1010.9,330.3,1.3,2.4,331.2,0.00,3.8,7.7,"05:51:36",1
"19/03/01","06:10",0.0,4.9,97.4,1011.2,323.3,1.8,4.0,318.2,0.00,4.6,7.7,"06:09:20",1
"19/03/01","06:20",0.2,5.6,96.0,1011.4,325.3,2.6,3.9,332.5,0.00,5.1,7.7,"06:18:56",1
"19/03/01","06:30",0.0,5.7,95.6,1011.6,331.3,2.5,3.6,329.9,0.00,5.1,7.5,"06:22:00",1
"19/03/01","06:40",0.0,5.7,95.4,1011.4,328.2,2.1,3.9,299.9,0.00,5.1,7.6,"06:32:24",1
"19/03/01","06:50",0.0,5.2,95.3,1011.6,338.4,2.2,3.2,333.9,0.00,4.6,7.6,"06:45:20",1
"19/03/01","07:00",0.0,5.4,95.0,1011.4,337.5,2.5,4.4,336.1,0.00,4.7,7.4,"06:52:32",1
"19/03/01","07:10",0.0,5.2,95.4,1011.6,332.7,2.3,4.0,330.1,0.00,4.6,7.4,"07:04:56",1
"19/03/01","07:20",0.0,5.0,95.5,1011.6,338.7,1.2,2.4,342.3,0.00,4.4,7.6,"07:13:52",1
"19/03/01","07:30",0.0,5.4,95.8,1012.1,328.0,1.7,4.2,327.0,0.00,4.8,7.7,"07:26:00",1
"19/03/01","07:40",0.0,5.9,95.0,1012.6,309.4,2.0,4.1,319.6,0.01,5.2,7.6,"07:36:56",1
"19/03/01","07:50",0.0,6.0,95.4,1012.8,152.4,0.5,1.7,315.9,0.02,5.4,7.5,"07:42:48",1
"19/03/01","08:00",0.0,6.7,94.9,1013.3,143.4,0.8,1.7,95.1,0.03,6.0,7.6,"07:54:48",1
"19/03/01","08:10",0.0,7.2,93.7,1013.0,294.7,0.3,0.9,158.7,0.05,6.3,7.7,"08:00:08",1
"19/03/01","08:20",0.0,7.7,92.2,1013.0,31.9,0.5,1.2,325.3,0.06,6.6,7.6,"08:15:20",1
"19/03/01","08:30",0.0,8.3,89.8,1013.3,341.9,0.6,1.3,294.9,0.09,6.8,7.7,"08:22:16",1
"19/03/01","08:40",0.0,8.5,87.9,1013.5,159.5,0.6,1.0,304.9,0.11,6.7,7.9,"08:31:44",1
"19/03/01","08:50",0.0,9.2,85.4,1013.8,263.2,0.6,1.4,316.6,0.14,6.9,7.9,"08:46:00",1
"19/03/01","09:00",0.0,9.2,83.5,1013.8,286.4,1.3,4.0,320.0,0.14,6.6,7.9,"08:58:40",1
"19/03/01","09:10",0.0,9.1,83.6,1013.8,291.5,2.7,4.3,285.2,0.09,6.5,8.2,"09:09:36",1
"19/03/01","09:20",0.0,9.4,83.4,1014.5,298.8,3.4,6.7,325.5,0.13,6.8,8.2,"09:10:32",1
"19/03/01","09:30",0.0,9.4,82.3,1014.0,294.1,3.0,6.2,303.3,0.16,6.6,8.3,"09:27:04",1
"19/03/01","09:40",0.0,9.8,80.4,1014.2,281.7,2.7,6.0,317.8,0.17,6.6,8.2,"09:36:32",1
"19/03/01","09:50",0.0,10.0,79.6,1014.2,278.4,2.1,3.7,247.5,0.19,6.7,8.2,"09:46:48",1
"19/03/01","10:00",0.0,10.1,79.2,1014.7,296.3,3.1,5.0,307.7,0.11,6.7,8.6,"09:56:16",1
"19/03/01","10:10",0.0,10.1,79.1,1014.5,292.9,3.1,4.9,310.7,0.12,6.7,8.7,"10:01:20",1
"19/03/01","10:20",0.0,10.0,79.4,1014.0,308.5,3.7,6.5,321.7,0.13,6.6,8.7,"10:12:48",1
"19/03/01","10:30",0.0,10.3,79.0,1013.8,300.6,3.9,6.5,274.6,0.09,6.9,8.6,"10:25:20",1
"19/03/01","10:40",0.0,10.5,80.4,1013.3,304.8,3.0,5.5,327.5,0.21,7.3,8.7,"10:32:24",1
"19/03/01","10:50",0.0,11.5,73.8,1013.8,330.4,1.6,4.5,340.2,0.34,7.0,9.0,"10:46:08",1
"19/03/01","11:00",0.0,11.9,70.5,1013.5,343.3,2.7,5.8,0.2,0.37,6.8,9.2,"10:55:12",1
"19/03/01","11:10",0.0,11.5,70.2,1013.5,327.1,3.1,4.8,331.3,0.23,6.3,9.2,"11:05:44",1
"19/03/01","11:20",0.0,11.9,68.0,1013.5,333.0,3.2,6.8,321.4,0.40,6.2,9.3,"11:19:04",1
"19/03/01","11:30",0.0,12.2,65.8,1013.3,330.0,3.9,7.4,336.1,0.44,6.0,9.5,"11:27:52",1
"19/03/01","11:40",0.0,12.1,65.1,1013.8,336.1,3.6,8.3,317.5,0.38,5.8,9.8,"11:31:36",1
"19/03/01","11:50",0.0,11.7,64.8,1013.8,324.3,5.0,8.3,343.9,0.19,5.3,9.5,"11:49:04",1
"19/03/01","12:00",0.0,12.7,62.0,1013.3,324.8,3.1,6.0,322.9,0.49,5.7,10.1,"11:55:04",1
"19/03/01","12:10",0.0,12.4,63.0,1013.3,316.3,3.1,6.2,347.9,0.25,5.6,10.1,"12:08:08",1
"19/03/01","12:20",0.0,13.0,62.8,1013.0,325.3,4.7,9.0,329.8,0.38,6.1,10.2,"12:15:04",1
"19/03/01","12:30",0.0,13.0,58.9,1013.0,331.8,2.6,5.7,338.7,0.50,5.2,10.6,"12:20:16",1
"19/03/01","12:40",0.0,13.1,57.2,1012.3,336.5,2.5,5.8,352.4,0.42,4.9,10.6,"12:39:04",1
"19/03/01","12:50",0.0,13.1,59.0,1012.3,318.5,3.1,5.6,319.2,0.26,5.3,10.9,"12:40:02",1
"19/03/01","13:00",0.0,12.3,54.7,1011.9,310.9,4.2,7.2,332.3,0.20,3.5,10.7,"12:56:24",1
"19/03/01","13:10",0.0,13.0,55.2,1012.1,292.4,2.6,5.0,322.1,0.36,4.3,10.9,"13:08:48",1
"19/03/01","13:20",0.0,13.1,54.4,1012.1,299.2,3.5,7.5,317.4,0.38,4.2,11.1,"13:11:20",1
"19/03/01","13:30",0.0,12.6,52.4,1011.9,324.4,4.4,8.7,324.2,0.37,3.2,11.1,"13:27:36",1
"19/03/01","13:40",0.0,13.2,50.8,1011.9,324.6,4.7,9.5,332.3,0.46,3.3,11.2,"13:36:56",1
"19/03/01","13:50",0.0,13.5,50.1,1011.6,316.5,5.1,9.1,334.8,0.51,3.4,11.2,"13:49:28",1
"19/03/01","14:00",0.0,14.2,51.5,1011.4,324.2,4.1,7.4,328.3,0.50,4.4,11.4,"13:53:20",1
"19/03/01","14:10",0.0,13.9,50.5,1011.4,322.2,4.5,6.8,350.8,0.46,3.8,11.6,"14:02:00",1
"19/03/01","14:20",0.0,13.6,51.0,1011.2,332.2,4.7,7.5,336.4,0.42,3.7,11.7,"14:10:16",1
"19/03/01","14:30",0.0,14.1,48.0,1010.7,318.9,4.0,7.1,291.7,0.43,3.3,11.6,"14:20:02",1
"19/03/01","14:40",0.0,13.8,48.6,1011.2,308.9,3.9,7.7,326.1,0.40,3.2,12.0,"14:30:02",1
"19/03/01","14:50",0.0,14.3,48.7,1011.2,303.5,3.1,7.4,334.2,0.45,3.7,12.0,"14:40:16",1
"19/03/01","15:00",0.0,14.3,49.5,1011.2,341.7,2.6,4.7,346.5,0.43,3.9,12.0,"14:57:28",1
"19/03/01","15:10",0.0,14.0,47.3,1011.2,318.7,3.2,5.8,344.8,0.41,3.0,12.3,"15:09:04",1
"19/03/01","15:20",0.0,13.7,51.3,1011.4,338.3,3.7,7.1,346.4,0.35,3.9,12.3,"15:13:36",1
"19/03/01","15:30",0.0,12.8,53.0,1010.9,343.5,3.1,5.9,340.3,0.22,3.5,12.3,"15:20:32",1
"19/03/01","15:40",0.0,13.3,53.3,1011.2,343.1,4.1,7.1,327.5,0.23,4.1,12.2,"15:32:00",1
"19/03/01","15:50",0.0,12.7,52.8,1011.2,350.5,3.0,7.2,348.7,0.22,3.4,12.5,"15:49:04",1
"19/03/01","16:00",0.0,12.7,52.6,1011.2,359.0,2.6,4.9,5.0,0.07,3.3,12.4,"15:52:48",1
"19/03/01","16:10",0.0,13.0,54.4,1011.2,359.5,2.2,4.2,54.7,0.19,4.1,12.3,"16:02:32",1
"19/03/01","16:20",0.0,12.2,56.9,1011.4,341.1,3.1,6.5,350.2,0.15,4.0,12.2,"16:14:00",1
"19/03/01","16:30",0.0,12.1,56.3,1011.4,350.2,3.4,5.8,348.8,0.14,3.7,12.4,"16:26:56",1
"19/03/01","16:40",0.0,12.7,52.0,1011.2,346.7,3.0,6.4,27.8,0.14,3.1,12.2,"16:30:32",1
"19/03/01","16:50",0.0,12.6,54.7,1011.6,351.1,2.5,4.9,345.6,0.12,3.8,12.1,"16:42:32",1
"19/03/01","17:00",0.0,12.5,56.3,1011.6,339.2,2.1,4.4,329.2,0.09,4.1,12.0,"16:51:28",1
"19/03/01","17:10",0.0,12.2,56.5,1011.9,338.1,2.6,6.6,344.5,0.07,3.9,11.9,"17:00:56",1
"19/03/01","17:20",0.0,11.7,55.3,1012.1,336.4,3.4,8.1,341.7,0.05,3.1,12.0,"17:10:02",1
"19/03/01","17:30",0.0,11.4,56.8,1012.3,333.7,3.6,7.3,352.7,0.04,3.2,11.9,"17:20:24",1
"19/03/01","17:40",0.0,11.0,58.2,1012.6,330.0,3.9,7.2,330.9,0.01,3.2,11.5,"17:31:44",1
"19/03/01","17:50",0.0,10.6,59.0,1012.8,342.4,3.2,6.7,335.4,0.00,3.0,11.5,"17:45:26",1
"19/03/01","18:00",0.0,10.3,61.0,1013.0,336.0,3.1,5.7,342.4,0.00,3.2,11.5,"17:53:46",1
"19/03/01","18:10",0.0,9.9,63.2,1013.3,342.0,3.1,5.1,350.6,0.00,3.3,11.5,"18:01:28",1
"19/03/01","18:20",0.0,9.6,64.2,1013.3,338.4,3.1,5.8,329.4,0.00,3.2,11.0,"18:14:16",1
"19/03/01","18:30",0.0,9.1,66.2,1013.8,335.0,2.5,3.6,324.6,0.00,3.2,11.2,"18:22:16",1
"19/03/01","18:40",0.0,8.7,67.1,1013.5,336.9,2.3,3.7,348.8,0.00,3.0,10.9,"18:34:16",1
"19/03/01","18:50",0.0,8.3,69.2,1013.8,334.1,2.5,4.3,323.1,0.00,3.0,10.7,"18:41:04",1
"19/03/01","19:00",0.0,8.1,71.0,1013.8,341.0,2.0,2.8,329.4,0.00,3.2,10.8,"18:59:28",1
"19/03/01","19:10",0.0,7.9,71.5,1013.8,346.0,2.0,3.6,321.3,0.00,3.1,10.5,"19:01:52",1
"19/03/01","19:20",0.0,7.7,73.3,1013.8,341.8,2.0,3.4,320.3,0.00,3.3,10.6,"19:17:44",1
"19/03/01","19:30",0.0,7.3,73.5,1014.0,321.8,2.7,3.9,329.6,0.00,2.9,10.4,"19:21:12",1
"19/03/01","19:40",0.0,6.8,74.9,1014.2,299.0,2.0,3.2,323.6,0.00,2.7,10.3,"19:34:48",1
"19/03/01","19:50",0.0,6.6,76.9,1014.2,302.8,2.0,3.4,332.1,0.00,2.9,10.2,"19:41:28",1
"19/03/01","20:00",0.0,6.5,77.9,1014.2,296.9,1.8,2.6,310.9,0.00,3.0,10.0,"19:56:24",1
"19/03/01","20:10",0.0,6.1,79.0,1014.2,319.8,1.7,2.7,323.2,0.00,2.8,10.0,"20:02:40",1
"19/03/01","20:20",0.0,5.7,80.5,1014.2,319.2,1.7,2.2,309.2,0.00,2.7,9.8,"20:12:40",1
"19/03/01","20:30",0.0,5.3,81.7,1014.5,310.0,1.6,2.8,313.3,0.00,2.5,9.7,"20:24:16",1
"19/03/01","20:40",0.0,5.2,83.2,1014.2,312.7,2.2,2.9,323.6,0.00,2.6,9.6,"20:36:32",1
"19/03/01","20:50",0.0,5.3,83.4,1014.0,298.9,2.5,3.4,295.2,0.00,2.8,9.5,"20:48:32",1
"19/03/01","21:00",0.0,5.2,83.9,1014.5,299.5,2.8,4.2,311.1,0.00,2.7,9.4,"20:56:08",1
"19/03/01","21:10",0.0,5.1,84.7,1014.2,300.7,2.8,4.0,319.7,0.00,2.8,9.1,"21:04:40",1
"19/03/01","21:20",0.0,5.0,84.4,1014.2,304.9,3.1,4.5,326.5,0.00,2.6,9.2,"21:16:00",1
"19/03/01","21:30",0.0,5.0,84.2,1014.5,316.8,3.4,5.0,321.7,0.00,2.6,9.2,"21:23:04",1
"19/03/01","21:40",0.0,5.0,84.8,1014.2,321.3,3.4,4.7,317.3,0.00,2.7,9.2,"21:33:20",1
"19/03/01","21:50",0.0,4.9,84.8,1014.5,316.4,3.0,4.8,321.9,0.00,2.6,8.8,"21:44:40",1
"19/03/01","22:00",0.0,4.8,85.3,1014.5,313.8,3.1,4.3,320.6,0.00,2.6,8.8,"21:50:40",1
"19/03/01","22:10",0.0,4.6,85.7,1014.7,316.6,3.2,4.4,331.1,0.00,2.5,8.8,"22:09:44",1
"19/03/01","22:20",0.0,4.4,85.7,1014.2,319.7,3.4,4.8,314.2,0.00,2.3,8.8,"22:10:32",1
"19/03/01","22:30",0.0,4.6,85.2,1014.7,328.0,3.7,5.2,336.8,0.00,2.4,8.5,"22:21:36",1
"19/03/01","22:40",0.0,4.4,85.4,1014.5,328.9,3.5,4.9,327.9,0.00,2.2,8.8,"22:33:04",1
"19/03/01","22:50",0.0,4.5,85.5,1014.0,324.4,3.1,4.3,328.8,0.00,2.3,8.6,"22:40:48",1
"19/03/01","23:00",0.0,4.8,85.6,1014.7,327.4,3.4,5.5,324.6,0.00,2.6,8.5,"22:58:40",1
"19/03/01","23:10",0.0,4.6,84.3,1014.2,327.6,3.0,4.1,336.2,0.00,2.2,8.6,"23:05:04",1
"19/03/01","23:20",0.0,4.7,85.0,1014.5,328.0,3.0,5.0,328.5,0.00,2.4,8.3,"23:17:12",1
"19/03/01","23:30",0.0,4.4,84.3,1014.2,326.3,2.6,3.6,335.2,0.00,2.0,8.5,"23:21:28",1
"19/03/01","23:40",0.0,4.2,85.5,1014.2,323.2,2.6,3.9,326.3,0.00,2.0,8.3,"23:31:04",1
"19/03/01","23:50",0.0,4.2,85.7,1014.2,322.4,2.3,3.6,334.2,0.00,2.1,8.2,"23:45:44",1
"19/03/01","24:00",0.0,3.9,85.3,1014.2,306.3,1.2,3.7,322.7,0.00,1.7,8.2,"23:51:04",1
